ARIANE 2 DEB, 26726

Orbit data source: Space-Track

ARIANE 2 DEB, 26726 is space debris in HEO originally from a launch on Fri, 27 Jan 1989 UTC launched from the French Guiana (FRGUI). Debris objects in space refer to the collection of defunct objects orbiting the Earth. Examples of debris include non-operational satellites, rocket bodies, and fragments generated from explosions, collisions, or faulty payload assembly.

Loading next visibility...
Identifier
26726, 1989-006D
Orbit
HEO
Country
Flag of FRFR
Related business
Manufacturer
EADS/LV
Mission
Spacecraft
Bus & Motor
Unknown
Mass
Unknown
Launch date (UTC)
1989-01-27 (37 years ago)
Launch vehicle
Unknown
Launch site
French Guiana (FRGUI)
Object type
Payload
Rocket body
Debris
Shape & HBR
Unknown shape, 0.5 m
Radar Cross Section
Medium (>0.1 m² and <1 m²)

Expand to show TLE details & history
Last TLE update: 11 hours ago

TLE from 11 hours ago
0 ARIANE 2 DEB
1 26726U 89006D   26104.49808537  .00000114  00000-0  42140-3 0  9993
2 26726   7.8721 118.5099 7165451 352.3179 196.0069  2.27658358209763
Epoch: 2026-04-14T11:57Z
TLE epoch observation values (Epoch: 2026-04-14T11:57:14.575Z)
Latitude
0.53659°
Longitude
-87.29029°
Altitude
35,259.066 km
Speed
1.678 km/s
True Right ascension
19h 38m 46s
True Declination
0° 32' 10"
Sunlit
Object was in daylight at epoch
Visualization orbit readout
Latitude
Unknown
Longitude
Unknown
Altitude
Unknown
Speed
Unknown
Apparent Right ascension
Unknown
Apparent Declination
Unknown
Sunlit
N/A
Visualization observer readout
Local Sidereal Time
05:50:37
Azimuth
Unknown
Elevation
Unknown
Doppler factor
Unknown
Orbital elements
Apogee altitude
35,529.534 km
Perigee altitude
542.121 km
Semi-major axis
24,413.964 km
Eccentricity
0.71655
Inclination
7.8721°
RAAN
118.5099°
Arg. of periapsis
352.3179°
True anomaly
183.80341°
Mean anomaly
196.0069°
Eccentric anomaly
189.34233°
Mean motion
0.56897 °/min
Orbital period
632.73 mins
BSTAR
0.0004214
Loading maneuver chart data...
Computing Atmospheric mass density...
Loading historical data...
Loading historical data...
Loading historical data...
Loading historical data...
Loading historical data...
Loading historical data...
Loading historical data...

Documentation

Showing up to 5 results
|